Simultaneous Nadir Overpasses (SNOs) Predictions

Prediction of SNOs between NOAA-20 and AQUA Satellite Orbit:

Table of predicted SNOs for the next 14.0 days since TLE Epoch: 8/10/2024
Index Date (NOAA-20) Time (NOAA-20) Lat,Lon (NOAA-20) SZA (NOAA-20 ) Date (AQUA) Time (AQUA) Lat,Lon (AQUA) SZA (AQUA ) Distance(km) Time Diff (sec)
1 08/12/2024 06:05:30 81.30, 14.02 73.24 08/12/2024 06:06:00 81.29, 14.20 73.19 3.06 30
2 08/12/2024 06:56:13 -81.31,-177.77 106.89 08/12/2024 06:55:21 -81.31,-177.78 106.85 0.19 52
3 08/14/2024 18:08:39 -81.30, 13.42 106.05 08/14/2024 18:09:06 -81.29, 13.50 106.08 1.44 27
4 08/14/2024 18:59:21 81.31,-178.30 73.82 08/14/2024 18:58:26 81.31,-178.48 73.88 2.97 55
5 08/17/2024 06:11:45 81.31, 13.13 74.65 08/17/2024 06:12:07 81.31, 13.09 74.64 0.64 22
6 08/17/2024 07:02:30 -81.31,-179.37 105.38 08/17/2024 07:01:29 -81.31,-179.27 105.35 1.77 61
7 08/19/2024 18:14:54 -81.31, 12.37 104.58 08/19/2024 18:15:09 -81.30, 12.24 104.57 2.31 15
8 08/19/2024 19:05:37 81.31,-179.82 75.36 08/19/2024 19:04:29 81.32,-179.78 75.40 0.74 68



Historial Predications of SNOs between NOAA-20 and AQUA
